Location: Cluj-Napoca
(46.7712°N, 23.6236°E)
Time: 18:14:27
(UTC+03:00)

ISS - Pass Details

Date: 23 May 2020
Orbit: 417 x 420 km, 51.6° (Epoch: 26 May)

Event Time Altitude Azimuth Distance (km) Brightness Sun altitude
Rises 00:08:02 0° 294° (WNW) 2,368 0.7 -20.6°
Reaches altitude 10° 00:10:11 10° 300° (WNW) 1,504 -0.3 -20.7°
Maximum altitude 00:13:28 47° 15° (NNE) 570 -2.8 -20.9°
Enters shadow 00:14:23 36° 62° (ENE) 691 -2.6 -20.9°
